Regional Weather Roundup
Issued by NWS Goodland, KS

Home | Current Version | Previous Version | Graphics & Text | Print | Product List | Glossary On
Versions: 1 2 3 4 5 6 7 8 9 10 11 12 13 14 15 16 17 18 19 20 21 22 23 24 25 26 27 28 29 30 31 32 33 34 35 36 37 38 39 40 41 42 43 44 45 46 47 48 49 50
530
ASUS43 KGLD 241608
RWRGLD

GOODLAND FORECAST AREA HOURLY WEATHER ROUNDUP
NATIONAL WEATHER SERVICE GOODLAND KS
900 AM MST FRI FEB 24 2017

...OFFICIAL OBSERVATIONS...

CITY           SKY/WX    TMP DP  RH WIND       PRES   REMARKS
GOODLAND KS    CLOUDY    24  20  84 N20G30    29.95R WCI  10
HILL CITY KS   LGT SNOW  28  25  88 N18G25    29.94R VSB 1   WCI  15
IMPERIAL NEB   MIX PCPN  23  19  85 N20       29.98R FOG     WCI   8
MCCOOK NEB     LGT SNOW  25  22  88 N23       29.95R FOG     WCI  10
AKRON CO       CLOUDY    19  15  84 N13       29.95R FOG     WCI   6
BURLINGTON CO  CLOUDY    23  18  81 N15G24    29.95R WCI  10
LIMON CO       CLOUDY    18  14  84 N12       29.92R WCI   5
$$

...UNOFFICIAL OBSERVATIONS...

CITY           SKY/WX    TMP DP  RH WIND       PRES   REMARKS
LENORA KS        N/A     26  32 100 N12G20      N/A  WCI  16
NORTON KS      CLOUDY    25  19  80 N32       29.92  HAZE    WCI   7
SHARON SPRINGS   N/A     26  20  76 N20         N/A  WCI  12
TRENTON NEB      N/A     24  32 100 CALM        N/A
KIT CARSON CO    N/A     22  15  73 MISG        N/A
YUMA CO        LGT SNOW  21  18  86 N6        29.96R
$$




USA.gov is the U.S. government's official web portal to all federal, state and local government web resources and services.